Погода в Танги-Чу

Россия / Чеченская Республика     43°04′18″N   45°30′51″E
темп.,
°C
ветер,
м/с
пор.,
м/с
влажн.,
%
обл.,
%
осадки,
мм/ч
давл.,
гПа
погр.,
м
25 января, вт
вт2500:00−4ююз217923 0.0 102212
03:00−3юз118159 0.0 102235
06:00−2ю1291100 0.1 1023104
09:00−1зсз119091 0.3 1024215
12:000ссз3593100 1.8 1024449
15:00−2с2492100 3.2 1026442
18:00−3всв119889 0.8 102779
21:00−5ю229342 0.9 102729
26 января, ср
ср2600:00−6ююз228724 0.0 102616
03:00−7ююз218923 0.0 102514
06:00−7ююз119057 0.0 102483
09:00−4ссв118340 0.0 1022265
12:00−2ссв218490 0.1 1020530
15:00−3св118892 0.2 1019305
18:00−4з019394 0.1 1020134
21:00−4юз119097 0.1 102061
27 января, чт
чт2700:00−6юз119070 0.0 101913
03:00−5ююз218974 0.1 101950
06:00−6ююз2186100 0.0 102016
09:00−3ссз0180100 0.0 1019177
12:00−2с2178100 0.0 1018548
15:00−2ссв2187100 0.1 1018385
18:00−4ссв1198100 0.3 101999
21:00−4сз1198100 0.4 102084
28 января, пт
пт2800:00−4зсз019688 0.1 102173
03:00−5зюз0197100 0.3 102231
06:00−5ююз119695 0.3 102232
09:00−2ю117875 0.4 1023243
12:000св216466 0.0 1021789
15:000св227058 0.1 1021609
18:00−5ююз229324 0.0 102317
21:00−6ююз22777 0.0 102424
29 января, сб
сб2900:00−6ююз32705 0.0 102327
03:00−6ююз32655 0.0 102333
06:00−5ююз33645 0.0 102243
09:00−1ююз225698 0.0 102177
12:00+3ссв114222 0.0 1019445
15:00+3ссв11515 0.0 1019321
18:00−3ююз32782 0.0 102218
21:00−3ююз32672 0.0 102329